Flag for Uzbekistan Weather past 2 weeks in Tashkent, Uzbekistan

Now
75 °F

Scattered clouds.


Feels Like: 77 °F
Forecast: 62 / 74 °F
Wind: 7 mph from South

Location: Tashkent

Current Time: Sep 2, 2015 at 10:36:31 AM

Latest Report: Sep 2, 2015 at 10:00 AM


Visibility: N/A

Pressure: 29.83 "Hg

Humidity: 39%

Dew point: 48 °F

Location of TashkentLocation

Historic Weather in Tashkent — Graph

°F

Tashkent temperature yesterday

Maximum temperature yesterday: 91 °F (at 2:30 PM)
Minimum temperature yesterday: 63 °F (at 4:00 AM)
Average temperature yesterday: 77 °F

Past Weeks' High & Low Weather Summary

 TemperatureHumidityPressure
High104 °F (Aug 19, 3:30 PM)94% (Aug 27, 9:30 PM)30.09 "Hg (Aug 27, 9:30 PM)
Low57 °F (Aug 26, 6:00 AM)7% (Aug 18, 1:00 PM)29.65 "Hg (Aug 22, 2:30 AM)
Average77 °F36%29.89 "Hg
* Reported Aug 18 9:00 AM — Sep 2 9:30 AM, Tashkent, Weather by CustomWeather, © 2015

Note: Actual official high and low records may vary slightly from our data, if they occured in-between our weather recording intervals... More about our weather records

Advertising

Tashkent weather history for previous 24 hours

 ConditionsComfort  
Time TempWeatherWind HumidityBarometerVisibility
9:30 AM
Wed, Sep 2
73 °FScattered clouds.8 mph38%29.83 "HgN/A
9:00 AM73 °FScattered clouds.6 mph36%29.83 "HgN/A
8:30 AM73 °FScattered clouds.5 mph33%29.83 "HgN/A
8:00 AM73 °FScattered clouds.5 mph31%29.83 "HgN/A
7:30 AM70 °FScattered clouds.3 mph35%29.83 "HgN/A
7:00 AM70 °FPassing clouds.3 mph35%29.83 "HgN/A
6:30 AM68 °FPassing clouds.8 mph38%29.83 "HgN/A
6:00 AM66 °FPassing clouds.5 mph40%29.83 "HgN/A
5:30 AM68 °FPassing clouds.5 mph38%29.83 "HgN/A
5:00 AM68 °FPassing clouds.5 mph35%29.80 "HgN/A
4:30 AM70 °FPassing clouds.10 mph33%29.80 "HgN/A
4:00 AM68 °FPassing clouds.7 mph35%29.80 "HgN/A
3:30 AM70 °FPassing clouds.6 mph31%29.83 "HgN/A
2:30 AM66 °FClear.9 mph37%29.83 "Hg10 mi
2:00 AM68 °FClear.7 mph33%29.83 "Hg10 mi
1:30 AM70 °FClear.9 mph31%29.83 "Hg10 mi
1:00 AM68 °FClear.8 mph35%29.83 "Hg10 mi
12:30 AM68 °FClear.7 mph35%29.83 "Hg10 mi
12:00 AM70 °FClear.9 mph33%29.86 "Hg10 mi
11:30 PM
Tue, Sep 1
70 °FClear.7 mph33%29.86 "Hg10 mi
11:00 PM70 °FClear.7 mph38%29.86 "Hg10 mi
10:30 PM70 °FClear.8 mph38%29.86 "Hg10 mi
10:00 PM72 °FClear.7 mph36%29.86 "Hg2 mi
9:30 PM73 °FClear.5 mph31%29.86 "Hg2 mi
9:00 PM79 °FClear.1 mph24%29.86 "Hg2 mi
8:30 PM79 °FClear.2 mph23%29.86 "Hg10 mi
8:00 PM81 °FClear.No wind23%29.86 "Hg10 mi
7:30 PM81 °FClear.5 mph21%29.86 "Hg10 mi
7:00 PM84 °FClear.6 mph18%29.86 "Hg10 mi
6:30 PM86 °FSunny.7 mph14%29.86 "Hg10 mi
6:00 PM88 °FSunny.5 mph13%29.86 "Hg10 mi
5:30 PM86 °FPassing clouds.5 mph12%29.89 "HgN/A
5:00 PM88 °FSunny.3 mph13%29.89 "Hg10 mi
4:30 PM90 °FPassing clouds.5 mph12%29.89 "HgN/A
4:00 PMN/A7 mphN/AN/A12 mi
3:30 PM90 °FPassing clouds.6 mph12%29.89 "HgN/A
3:00 PM90 °FSunny.6 mph10%29.89 "Hg10 mi
2:30 PM91 °FSunny.2 mph10%29.89 "Hg10 mi
2:00 PM90 °FSunny.5 mph12%29.92 "Hg10 mi
1:30 PM90 °FPassing clouds.8 mph13%29.92 "HgN/A
1:00 PM88 °FPassing clouds.7 mph13%29.92 "HgN/A
12:30 PM88 °FPassing clouds.7 mph15%29.92 "HgN/A
12:00 PM88 °FSunny.3 mph13%29.95 "Hg10 mi
11:30 AM86 °FPassing clouds.7 mph17%29.95 "HgN/A
11:00 AM86 °FPassing clouds.7 mph18%29.95 "HgN/A
10:30 AM84 °FPassing clouds.8 mph19%29.95 "HgN/A
10:00 AM84 °FSunny.7 mph18%29.95 "Hg10 mi
Weather by CustomWeather, © 2015

See weather overviewHow to use our weather pages